Domov               UVHVVR             MKGP            O straneh              
ZDRAVSTVENO VARSTVO RASTLIN
  MREŽA AGROMET. POSTAJ
 ► PROGNOSTIČNA OBVESTILA
AGROMETEOROLOŠKI PODATKI -
ARSO
OBVLADOVANJE TVEGANJ ZARADI
NEUGODNIH VREMENSKIH RAZMER
  ► NARAVNE NESREČE
  ► SUŠA/MOČA
  ► NAMAKANJE
  ► ŽLED (gozdarstvo)
KARTOGRAFSKI PRIKAZI
SPLETNE POVEZAVE
PROJEKTI IN PUBLIKACIJE

AGROMETEOROLOŠKA MREŽA: VREMENSKE POSTAJE IN FENOLOŠKA OPAZOVANJA

Pregled podatkov za lokacijo Črnova (Gradišnik), meteorološka postaja 22213

Pregled senzorjev na lokaciji

ID Ime Zadnja
vrednost
Datum
zadnje
spremembe
Tip
senzorja
4194 Temperatura 2 m (°C) 6,81 °C 11.12.2017 10:00 Generic -40 - +60 °C
4195 Relativna vlaga 2 m (% RH) 89,21 % RH 11.12.2017 10:00 Generic 0 - 100 %
4196 Omočenost lista (U) 0 U 11.12.2017 10:00 A730WET
4197 Padavine (mm) 0 mm 11.12.2017 10:00 Generic 0.2 mm

Pregled podatkov zadnjih 24 ur

Zap.
št.
Datum in čas Črnova (Gradišnik)
Omočenost
lista
Padavine Relativna
vlaga
2
m
Temperatura
2
m
0 11.12.2017 10:00 0 0 89,21 6,81
1 11.12.2017 09:30 1 0 92,7 6,25
2 11.12.2017 09:00 1 0 92,63 6,35
3 11.12.2017 08:30 1 0 91,53 6,32
4 11.12.2017 08:00 1 0 89,13 6,84
5 11.12.2017 07:30 2 0,6 90,04 6,81
6 11.12.2017 07:00 3 0,8 89,47 6,79
7 11.12.2017 06:30 4 1,2 88,5 6,91
8 11.12.2017 06:00 3 1,6 86,74 7,2
9 11.12.2017 05:30 1 1,6 90,11 6,35
10 11.12.2017 05:00 1 1,6 91,16 5,86
11 11.12.2017 04:30 1 2 93,46 5,35
12 11.12.2017 04:00 1 1,4 95,29 4,76
13 11.12.2017 03:30 1 1,6 98,8 3,35
14 11.12.2017 03:00 1 1,4 98,36 2,66
15 11.12.2017 02:30 1 1 98,19 2,2
16 11.12.2017 02:00 1 1 98,44 1,93
17 11.12.2017 01:30 1 0,4 97,92 1,66
18 11.12.2017 01:00 2 0 97,24 1,64
19 11.12.2017 00:30 3 0 95,53 1,68
20 11.12.2017 00:00 9 0 92,97 2,15
21 10.12.2017 23:30 8 0 92,77 2,03
22 10.12.2017 23:00 3 0 92,53 1,83
23 10.12.2017 22:30 0 0 91,97 1,64
24 10.12.2017 22:00 0 0 90,26 1,83
25 10.12.2017 21:30 0 0 88,62 2,03
26 10.12.2017 21:00 0,2 86,3 2,2
27 10.12.2017 20:30 0 0 83,91 2,32
28 10.12.2017 20:00 0 0 84,81 1,86
29 10.12.2017 19:30 0 0 86,52 1,39
30 10.12.2017 19:00 0,2 87,67 0,88
31 10.12.2017 18:30 0 0 87,74 0,66
32 10.12.2017 18:00 0 0 91,87 -0,12
33 10.12.2017 17:30 0 0 93,38 -0,42
34 10.12.2017 17:00 0 0 91,4 -0,12
35 10.12.2017 16:30 0 0 89,62 0
36 10.12.2017 16:00 0 0 85,23 0,34
37 10.12.2017 15:30 0 0 79,39 0,78
38 10.12.2017 15:00 0,2 75,65 0,95
39 10.12.2017 14:30 0 0 75,16 1,03
40 10.12.2017 14:00 0 0 78,05 0,78
41 10.12.2017 13:30 0 0 77,53 0,88
42 10.12.2017 13:00 0 0 80,2 0,37
43 10.12.2017 12:30 0 0 80,27 0,49
44 10.12.2017 12:00 0 0 77,09 0,71
45 10.12.2017 11:30 0 0 78,14 -0,07
46 10.12.2017 11:00 0 0 75,26 0,39
© 2011 Ministrstvo za kmetijstvo, gozdarstvo in prehrano. Vse pravice pridržane.